Location: Lake Sonoma
(38.7200°N, 123.0564°W)
Time: 15:24:36
(UTC-07:00)

Amateur Radio Satellites - All Passes

Search period start: 26 May 2016 14:54
Search period end: 27 May 2016 14:54
Location: Lake Sonoma, 38.7200°N, 123.0564°W

Satellite Date Start Highest point End Downlink Frequencies (MHz)
Time Altitude Azimuth
Gurwin Techsat 1B 26 May 15:02:47 15:07:53 48° 261° (W) 15:13:01 435.225
TISAT 1 26 May 15:03:16 15:07:00 32° 289° (WNW) 15:10:43 437.305
SWISSCUBE 26 May 15:08:32 15:13:11 48° 100° (E) 15:17:49 437.505
AO-85 26 May 15:09:42 15:13:51 30° 49° (NE) 15:17:38 145.980
ITUPSAT 1 26 May 15:14:00 15:18:39 49° 100° (E) 15:23:18 437.325
ITAMSAT 1 26 May 15:28:48 15:33:56 68° 258° (WSW) 15:39:07 435.822/435.867
AIST 2 26 May 15:29:20 15:32:56 28° 309° (NW) 15:36:33 435.215
BEESAT 26 May 15:38:18 15:43:07 90° 124° (SE) 15:47:55 436.000
YUBILEINY 26 May 16:00:26 16:08:01 35° 85° (E) 16:15:36 435.215
Cosmos 2491 26 May 16:00:49 16:09:38 79° 83° (E) 16:18:20 435.465 / 435.565
AO-7 26 May 16:30:31 16:38:43 64° 256° (WSW) 16:46:58 29.400- 29.500
SWISSCUBE 26 May 16:47:26 16:50:34 18° 296° (WNW) 16:53:42 437.505
AO-85 26 May 16:50:22 16:54:11 27° 249° (WSW) 16:57:44 145.980
ITUPSAT 1 26 May 16:52:56 16:56:05 18° 295° (WNW) 16:59:14 437.325
KKS-1 26 May 16:53:13 16:57:39 70° 102° (ESE) 17:02:03 437.445
MOZHAYETS 4 26 May 16:59:57 17:04:33 62° 101° (E) 17:09:08
BRITE-PL 26 May 17:07:20 17:09:52 13° 61° (ENE) 17:12:25 437.365/2234.400
HORYU 2 26 May 17:16:24 17:20:49 82° 256° (WSW) 17:25:15 437.375
RS-15 26 May 17:24:08 17:34:45 51° 110° (ESE) 17:45:57 29.354- 29.394
STARS 26 May 17:32:07 17:36:30 86° 282° (WNW) 17:40:51 437.465
NOAA 18 26 May 17:38:15 17:42:49 28° 66° (ENE) 17:47:24 137.9125
GOMX 1 26 May 17:38:33 17:40:29 12° 61° (ENE) 17:42:25 467.674
Cosmos 2504 26 May 17:45:39 17:52:18 43° 88° (E) 17:59:16 435.465 / 435.565
NOAA 15 26 May 17:47:56 17:52:49 39° 69° (ENE) 17:57:43 137.62
Cubesat XI-IV 26 May 17:49:14 17:53:38 27° 67° (ENE) 17:58:03 437.490
YUBILEINY 26 May 17:56:14 18:04:30 47° 284° (WNW) 18:12:51 435.215
Cosmos 2491 26 May 17:59:36 18:05:22 20° 281° (W) 18:11:08 435.465 / 435.565
CUBESAT XI-V 26 May 18:22:12 18:26:50 51° 100° (E) 18:31:23 437.345
DOVE 4 26 May 18:31:17 18:34:44 18° 66° (ENE) 18:38:05 437.250
KKS-1 26 May 18:32:24 18:33:36 11° 298° (WNW) 18:34:49 437.445
CUTE-I 26 May 18:34:48 18:40:05 73° 74° (ENE) 18:45:23 437.470
MOZHAYETS 4 26 May 18:39:01 18:41:10 13° 296° (WNW) 18:43:19
BRITE-PL 26 May 18:41:52 18:47:29 89° 267° (W) 18:53:13 437.365/2234.400
LilacSat-2 26 May 18:59:05 19:02:50 60° 259° (W) 19:06:37 437.200
HO-68 26 May 19:05:10 19:10:29 23° 59° (ENE) 19:15:49 435.675
CINEMA 3 26 May 19:11:25 19:13:17 12° 64° (ENE) 19:15:09 145.822/145.860
GOMX 1 26 May 19:12:15 19:17:46 88° 77° (ENE) 19:23:13 467.674
STRAND 1 26 May 19:16:02 19:18:46 14° 91° (E) 19:21:29 437.568
NOAA 18 26 May 19:18:19 19:23:18 36° 262° (W) 19:28:20 137.9125
CANX-2 26 May 19:26:30 19:29:08 16° 67° (ENE) 19:31:47 2200.000
NOAA 15 26 May 19:28:23 19:32:39 25° 265° (W) 19:36:58 137.62
Cubesat XI-IV 26 May 19:28:42 19:33:31 36° 262° (W) 19:38:24 437.490
PCSat 26 May 19:30:08 19:35:28 55° 58° (ENE) 19:40:46 145.827
SEEDS 26 May 19:32:33 19:34:04 12° 64° (ENE) 19:35:35 437.485
RS-15 26 May 19:36:17 19:47:14 50° 313° (NW) 19:58:49 29.354- 29.394
Cosmos 2504 26 May 19:39:30 19:45:47 32° 288° (WNW) 19:52:23 435.465 / 435.565
CUTE 1.7 + AOD 2 26 May 19:52:52 19:56:26 28° 70° (ENE) 20:00:02 437.475
CUBESAT XI-V 26 May 20:00:54 20:03:45 16° 295° (WNW) 20:06:35 437.345
AUBIESAT-1 26 May 20:02:01 20:06:12 72° 70° (ENE) 20:10:05 437.475
DOVE 4 26 May 20:06:49 20:11:59 55° 260° (W) 20:17:00 437.250
CUBEBUG 2 26 May 20:07:25 20:09:39 14° 66° (ENE) 20:11:53 437.445
M-CUBED/EXP-1 PRIME 26 May 20:07:41 20:11:59 78° 252° (WSW) 20:15:58 437.505
BEESAT 2 26 May 20:13:17 20:14:32 11° 43° (NE) 20:15:46 435.950
O/OREOS (USA 219) 26 May 20:14:33 20:19:03 83° 71° (ENE) 20:23:30 437.305
COMPASS 1 26 May 20:18:18 20:21:48 27° 70° (ENE) 20:25:20 437.405
CUTE-I 26 May 20:18:24 20:20:38 13° 270° (W) 20:22:53 437.470
AAUSAT CUBESAT 2 26 May 20:22:02 20:25:21 24° 69° (ENE) 20:28:41 437.432
BRITE-PL 26 May 20:25:06 20:26:37 11° 273° (W) 20:28:09 437.365/2234.400
PRISM 26 May 20:30:04 20:31:35 12° 92° (E) 20:33:07 437.425
UWE-3 26 May 20:37:07 20:40:15 20° 68° (ENE) 20:43:20 435.000/436.395/437.385
FUNcube-1 26 May 20:44:51 20:47:14 15° 66° (ENE) 20:49:36 145.935
CINEMA 3 26 May 20:45:08 20:49:55 68° 259° (W) 20:54:31 145.822/145.860
BEESAT 3 26 May 20:48:09 20:51:51 37° 54° (NE) 20:55:32 437.485
HO-68 26 May 20:50:28 20:57:34 68° 257° (WSW) 21:04:42 435.675
STRAND 1 26 May 20:53:15 20:58:20 62° 287° (WNW) 21:03:24 437.568
GOMX 1 26 May 20:55:02 20:56:24 11° 272° (W) 20:57:45 467.674
CANX-2 26 May 21:00:44 21:04:39 39° 262° (W) 21:08:38 2200.000
DELFI C3 26 May 21:02:09 21:03:40 12° 65° (ENE) 21:05:10 145.870
SEEDS 26 May 21:05:10 21:09:15 56° 260° (W) 21:13:23 437.485
PCSat 26 May 21:14:40 21:18:23 19° 255° (WSW) 21:22:06 145.827
Oscar 11 26 May 21:27:52 21:32:03 55° 74° (ENE) 21:36:16 145.826/435.025
CUTE 1.7 + AOD 2 26 May 21:28:58 21:32:14 22° 265° (W) 21:35:33 437.475
ISS 26 May 21:34:58 21:37:53 31° 135° (SE) 21:40:50 145.825
ZACube-1 26 May 21:40:14 21:44:28 68° 76° (ENE) 21:48:38 437.345
CUBEBUG 2 26 May 21:41:35 21:45:53 50° 260° (W) 21:50:05 437.445
BEESAT 2 26 May 21:48:55 21:52:54 81° 242° (WSW) 21:56:52 435.950
GONETS M04 26 May 21:49:53 21:57:55 42° 87° (E) 22:05:56
COMPASS 1 26 May 21:54:07 21:57:19 22° 265° (W) 22:00:34 437.405
AIST 1 26 May 21:55:03 21:59:27 88° 98° (E) 22:03:53
RS-15 26 May 21:55:29 22:03:46 21° 344° (NNW) 22:12:18 29.354- 29.394
DANDE 26 May 21:56:24 21:58:05 11° 55° (NE) 21:59:44 436.750
AAUSAT CUBESAT 2 26 May 21:57:21 22:00:44 25° 265° (W) 22:04:09 437.432
HUMSAT D 26 May 21:57:30 22:00:46 24° 69° (ENE) 22:04:03 437.325/437.525
PRISM 26 May 22:03:07 22:07:11 51° 287° (WNW) 22:11:13 437.425
CUSAT 1 26 May 22:08:29 22:14:20 23° 64° (ENE) 22:19:32 437.405
UWE-3 26 May 22:12:36 22:16:30 32° 263° (W) 22:20:20 435.000/436.395/437.385
AIST 2 26 May 22:14:10 22:16:24 14° 44° (NE) 22:18:37 435.215
FUNcube-1 26 May 22:19:04 22:23:08 43° 261° (W) 22:27:08 145.935
Cosmos 2499 26 May 22:23:12 22:29:35 36° 86° (E) 22:36:22 435.465 / 435.565
BEESAT 3 26 May 22:26:41 22:29:14 17° 250° (WSW) 22:31:47 437.485
DELFI C3 26 May 22:34:13 22:38:04 49° 261° (W) 22:41:56 145.870
UNISAT 6 26 May 22:46:52 22:50:11 21° 95° (E) 22:53:33 437.425
TIGRISAT 26 May 22:54:33 22:58:06 24° 96° (E) 23:01:39 435.000
ESTCUBE 1 26 May 22:59:05 23:02:41 24° 68° (ENE) 23:06:18 437.505/2401.250
PHONESAT 2.4 26 May 23:03:55 23:06:56 45° 157° (SSE) 23:09:56 2401.200-2431.200
Oscar 11 26 May 23:07:06 23:08:30 11° 269° (W) 23:09:56 145.826/435.025
ISS 26 May 23:11:28 23:14:20 27° 331° (NNW) 23:17:12 145.825
CUBEBUG 1 26 May 23:19:56 23:23:39 27° 69° (ENE) 23:27:24 437.445
DX 1 26 May 23:22:25 23:25:57 24° 68° (ENE) 23:29:29 434.975-435.025
VELOX 1 26 May 23:24:27 23:28:19 30° 70° (ENE) 23:32:14 145.980
50 SAT 26 May 23:26:10 23:29:20 29° 71° (ENE) 23:32:33 437.505
ANTELSAT 26 May 23:27:23 23:31:39 63° 101° (E) 23:35:59 437.575/2403.000
HUMSAT D 26 May 23:32:58 23:36:18 24° 264° (W) 23:39:39 437.325/437.525
DANDE 26 May 23:34:42 23:42:58 54° 75° (ENE) 23:50:24 436.750
DUCHIFAT 1 26 May 23:41:41 23:43:37 13° 92° (E) 23:45:32 145.980
GONETS M04 26 May 23:46:32 23:54:40 41° 286° (WNW) 00:02:49
CUSAT 1 26 May 23:49:35 23:57:19 69° 265° (W) 00:03:40 437.405
AIST 2 26 May 23:51:11 23:55:18 65° 241° (WSW) 23:59:23 435.215
SPROUT 26 May 23:51:12 23:54:31 22° 68° (ENE) 23:57:50 437.525
SO-50 26 May 23:57:33 00:00:37 17° 109° (ESE) 00:03:41 436.795
AISAT 26 May 23:59:45 00:04:13 79° 74° (ENE) 00:08:42 437.250
UKube-1 27 May 00:12:17 00:16:36 70° 75° (ENE) 00:20:56 .
RS-15 27 May 00:13:36 00:22:39 23° 21° (NNE) 00:31:47 29.354- 29.394
Cosmos 2499 27 May 00:15:56 00:22:34 38° 286° (WNW) 00:29:39 435.465 / 435.565
POPSAT HIP 1 27 May 00:17:12 00:21:08 37° 98° (E) 00:25:01 437.405
QB50P1 27 May 00:17:40 00:21:37 39° 98° (E) 00:25:32 145.935-145.965
QB50P2 27 May 00:19:37 00:23:39 43° 99° (E) 00:27:39 145.880/145.840
TISAT 1 27 May 00:19:59 00:21:52 13° 64° (ENE) 00:23:44 437.305
POLYITAN 1 27 May 00:22:04 00:26:06 44° 99° (E) 00:30:06 437.675
UNISAT 6 27 May 00:23:10 00:26:55 30° 290° (WNW) 00:30:43 437.425
TIGRISAT 27 May 00:31:09 00:34:43 26° 290° (WNW) 00:38:20 435.000
ESTCUBE 1 27 May 00:35:22 00:39:19 30° 263° (W) 00:43:20 437.505/2401.250
NANOSAT C BR1 27 May 00:36:25 00:40:35 63° 101° (ESE) 00:44:43 145.865
PHONESAT 2.4 27 May 00:40:31 00:43:39 65° 354° (N) 00:46:45 2401.200-2431.200
CUBEBUG 1 27 May 00:56:10 00:59:51 26° 264° (W) 01:03:34 437.445
DX 1 27 May 00:58:13 01:01:59 28° 263° (W) 01:05:48 434.975-435.025
50 SAT 27 May 01:01:01 01:03:08 15° 267° (W) 01:05:17 437.505
VELOX 1 27 May 01:01:13 01:04:46 23° 265° (W) 01:08:22 145.980
ANTELSAT 27 May 01:06:30 01:07:51 11° 296° (WNW) 01:09:12 437.575/2403.000
JAS-2 27 May 01:14:51 01:21:20 32° 93° (E) 01:27:11 435.910
DUCHIFAT 1 27 May 01:15:33 01:19:33 46° 287° (WNW) 01:23:32 145.980
DANDE 27 May 01:18:10 01:25:23 33° 274° (W) 01:32:00 436.750
Oscar 19 27 May 01:25:46 01:28:18 14° 91° (E) 01:30:50 437.125/150
SPROUT 27 May 01:26:32 01:30:18 29° 263° (W) 01:34:04 437.525
SO-50 27 May 01:35:49 01:40:38 57° 304° (NW) 01:45:29 436.795
CUSAT 1 27 May 01:36:20 01:37:38 11° 285° (WNW) 01:38:53 437.405
BUGSAT 1 27 May 01:36:54 01:40:52 57° 286° (WNW) 01:44:48 437.445
TISAT 1 27 May 01:52:54 01:57:02 53° 259° (W) 02:01:12 437.305
POPSAT HIP 1 27 May 01:53:54 01:56:36 17° 294° (WNW) 01:59:19 437.405
QB50P1 27 May 01:54:25 01:57:04 16° 294° (WNW) 01:59:43 145.935-145.965
QB50P2 27 May 01:56:41 01:59:05 15° 294° (WNW) 02:01:28 145.880/145.840
POLYITAN 1 27 May 01:59:11 02:01:30 15° 295° (WNW) 02:03:50 437.675
YUBILEINY 27 May 02:13:04 02:17:54 16° 62° (ENE) 02:22:42 435.215
SWISSCUBE 27 May 02:13:35 02:18:08 48° 72° (ENE) 02:22:43 437.505
NANOSAT C BR1 27 May 02:14:45 02:15:46 11° 297° (WNW) 02:16:45 145.865
PHONESAT 2.4 27 May 02:17:24 02:20:32 73° 10° (N) 02:23:39 2401.200-2431.200
ITUPSAT 1 27 May 02:19:20 02:23:53 48° 72° (ENE) 02:28:30 437.325
RS-15 27 May 02:26:34 02:38:41 58° 51° (NE) 02:50:44 29.354- 29.394
ISS 27 May 02:28:58 02:29:21 10° 11° (N) 02:29:44 145.825
BEESAT 27 May 02:43:10 02:47:55 88° 82° (E) 02:52:42 436.000
JAS-2 27 May 02:59:26 03:06:29 46° 292° (WNW) 03:12:50 435.910
Oscar 19 27 May 03:02:57 03:08:03 65° 287° (WNW) 03:13:07 437.125/150
Cosmos 2491 27 May 03:07:40 03:12:53 17° 78° (ENE) 03:18:04 435.465 / 435.565
Gurwin Techsat 1B 27 May 03:20:01 03:25:21 76° 103° (ESE) 03:30:40 435.225
Cosmos 2504 27 May 03:39:50 03:44:38 16° 64° (ENE) 03:49:31 435.465 / 435.565
ITAMSAT 1 27 May 03:42:59 03:48:01 47° 100° (E) 03:53:02 435.822/435.867
KKS-1 27 May 03:49:41 03:54:02 53° 73° (ENE) 03:58:24 437.445
SWISSCUBE 27 May 03:53:13 03:56:10 16° 267° (W) 03:59:08 437.505
PHONESAT 2.4 27 May 03:54:18 03:57:10 33° 206° (SSW) 04:00:00 2401.200-2431.200
ITUPSAT 1 27 May 03:59:03 04:01:59 16° 267° (W) 04:04:55 437.325
MOZHAYETS 4 27 May 04:00:23 04:04:44 49° 73° (ENE) 04:09:09
ISS 27 May 04:03:43 04:06:38 29° 30° (NNE) 04:09:33 145.825
YUBILEINY 27 May 04:07:19 04:16:07 82° 83° (E) 04:24:56 435.215
STARS 27 May 04:27:03 04:31:27 70° 75° (ENE) 04:35:51 437.465
AO-7 27 May 04:33:31 04:41:36 49° 102° (ESE) 04:49:35 29.400- 29.500
RS-15 27 May 04:39:36 04:50:52 44° 252° (WSW) 05:02:02 29.354- 29.394
Cosmos 2491 27 May 04:59:36 05:08:27 87° 277° (W) 05:17:20 435.465 / 435.565
Gurwin Techsat 1B 27 May 05:02:01 05:04:37 14° 299° (WNW) 05:07:13 435.225
HORYU 2 27 May 05:09:23 05:12:41 20° 95° (E) 05:16:00 437.375
AO-85 27 May 05:23:18 05:26:36 16° 107° (ESE) 05:29:54 145.980
ITAMSAT 1 27 May 05:23:19 05:27:08 21° 295° (WNW) 05:30:56 435.822/435.867
CUBESAT XI-V 27 May 05:24:01 05:28:24 42° 72° (ENE) 05:32:51 437.345
KKS-1 27 May 05:28:48 05:30:54 13° 268° (W) 05:32:59 437.445
Cosmos 2504 27 May 05:30:43 05:39:13 82° 82° (E) 05:48:06 435.465 / 435.565
MOZHAYETS 4 27 May 05:39:40 05:42:11 15° 268° (W) 05:44:42
ISS 27 May 05:40:10 05:43:02 29° 226° (SW) 05:45:54 145.825
NOAA 18 27 May 06:03:13 06:05:18 12° 90° (E) 06:07:22 137.9125
NOAA 15 27 May 06:05:36 06:08:45 16° 92° (E) 06:11:53 137.62
YUBILEINY 27 May 06:06:13 06:11:47 19° 281° (W) 06:17:23 435.215
Cubesat XI-IV 27 May 06:09:48 06:11:18 11° 89° (E) 06:12:49 437.490
AO-7 27 May 06:26:39 06:34:06 38° 299° (WNW) 06:41:32 29.400- 29.500
STRAND 1 27 May 06:30:31 06:34:03 19° 64° (ENE) 06:37:35 437.568
LilacSat-2 27 May 06:34:56 06:37:10 15° 93° (E) 06:39:23 437.200
HORYU 2 27 May 06:45:19 06:49:18 33° 290° (WNW) 06:53:17 437.375
BRITE-PL 27 May 06:49:21 06:53:56 33° 95° (E) 06:58:10 437.365/2234.400
CUTE-I 27 May 06:53:31 06:58:17 32° 97° (E) 07:03:02 437.470
AO-85 27 May 07:01:09 07:06:35 69° 303° (WNW) 07:11:57 145.980
Cosmos 2491 27 May 07:01:11 07:06:34 17° 297° (WNW) 07:12:00 435.465 / 435.565
CUBESAT XI-V 27 May 07:02:49 07:05:58 18° 268° (W) 07:09:08 437.345
GOMX 1 27 May 07:16:52 07:20:49 27° 94° (E) 07:24:33 467.674
Cosmos 2504 27 May 07:26:03 07:31:37 20° 280° (W) 07:37:23 435.465 / 435.565
NOAA 18 27 May 07:41:01 07:46:31 79° 286° (WNW) 07:52:00 137.9125
NOAA 15 27 May 07:43:41 07:48:54 59° 287° (WNW) 07:54:04 137.62
Cubesat XI-IV 27 May 07:46:35 07:51:57 82° 286° (WNW) 07:57:20 437.490
GONETS M04 27 May 08:02:39 08:08:18 18° 64° (ENE) 08:13:55
AIST 1 27 May 08:04:26 08:07:30 19° 73° (ENE) 08:10:34
DOVE 4 27 May 08:07:46 08:11:56 43° 98° (E) 08:15:55 437.250
STRAND 1 27 May 08:07:55 08:12:49 49° 260° (W) 08:17:47 437.568
LilacSat-2 27 May 08:08:09 08:11:33 32° 288° (WNW) 08:14:56 437.200
Cosmos 2499 27 May 08:16:38 08:20:21 13° 61° (ENE) 08:24:07 435.465 / 435.565
HO-68 27 May 08:20:22 08:26:08 26° 94° (E) 08:31:52 435.675
BRITE-PL 27 May 08:28:05 08:32:13 25° 293° (WNW) 08:36:06 437.365/2234.400
SO-50 27 May 08:29:56 08:32:11 13° 40° (NE) 08:34:24 436.795
CUTE-I 27 May 08:33:35 08:38:14 31° 292° (WNW) 08:42:52 437.470
CINEMA 3 27 May 08:41:43 08:45:19 28° 96° (E) 08:48:53 145.822/145.860
AO-85 27 May 08:45:32 08:48:01 13° 321° (NW) 08:50:29 145.980
CANX-2 27 May 08:46:49 08:50:48 36° 98° (E) 08:54:46 2200.000
O/OREOS (USA 219) 27 May 08:49:44 08:50:58 11° 97° (E) 08:52:11 437.305
SEEDS 27 May 08:50:42 08:54:14 25° 95° (E) 08:57:46 437.485
PRISM 27 May 08:50:42 08:54:51 89° 274° (W) 08:59:03 437.425
GOMX 1 27 May 08:54:58 08:58:50 26° 292° (WNW) 09:02:29 467.674
JUGNU 27 May 08:57:34 08:59:36 12° 182° (S) 09:01:38 437.505
CUTE 1.7 + AOD 2 27 May 09:13:57 09:18:13 67° 100° (E) 09:22:28 437.475
AUBIESAT-1 27 May 09:16:35 09:19:52 60° 105° (ESE) 09:23:09 437.475
Oscar 11 27 May 09:18:40 09:20:01 11° 91° (E) 09:21:22 145.826/435.025
M-CUBED/EXP-1 PRIME 27 May 09:22:57 09:26:14 83° 288° (WNW) 09:29:30 437.505
NOAA 18 27 May 09:25:22 09:26:15 10° 303° (WNW) 09:27:09 137.9125
Cubesat XI-IV 27 May 09:30:16 09:31:09 10° 302° (WNW) 09:32:01 437.490
ZACube-1 27 May 09:31:14 09:33:25 14° 92° (E) 09:35:37 437.345
CUBEBUG 2 27 May 09:33:41 09:37:27 33° 97° (E) 09:41:16 437.445
COMPASS 1 27 May 09:37:03 09:41:15 63° 101° (E) 09:45:25 437.405
AAUSAT CUBESAT 2 27 May 09:40:00 09:44:07 53° 99° (E) 09:48:14 437.432
AIST 1 27 May 09:41:18 09:45:11 32° 270° (W) 09:49:01
UNISAT 6 27 May 09:45:11 09:48:01 17° 67° (ENE) 09:50:49 437.425
DOVE 4 27 May 09:46:41 09:49:14 15° 295° (WNW) 09:51:43 437.250
TIGRISAT 27 May 09:52:33 09:55:39 19° 68° (ENE) 09:58:43 435.000
GONETS M04 27 May 09:57:32 10:06:17 87° 265° (W) 10:14:58
UWE-3 27 May 10:02:50 10:06:54 50° 99° (E) 10:11:01 435.000/436.395/437.385
Cosmos 2499 27 May 10:06:24 10:15:01 70° 81° (E) 10:23:53 435.465 / 435.565
HO-68 27 May 10:07:11 10:14:10 57° 291° (WNW) 10:21:09 435.675
FUNcube-1 27 May 10:08:07 10:11:58 35° 98° (E) 10:15:52 145.935
SO-50 27 May 10:08:40 10:13:23 89° 58° (ENE) 10:17:54 436.795
PCSat 27 May 10:10:08 10:15:29 67° 115° (ESE) 10:20:53 145.827
DELFI C3 27 May 10:13:39 10:16:49 22° 95° (E) 10:19:57 145.870
CINEMA 3 27 May 10:19:11 10:22:19 21° 292° (WNW) 10:25:25 145.822/145.860
CANX-2 27 May 10:23:27 10:26:22 18° 293° (WNW) 10:29:17 2200.000
ANTELSAT 27 May 10:24:51 10:29:02 46° 73° (ENE) 10:33:09 437.575/2403.000
O/OREOS (USA 219) 27 May 10:25:13 10:29:45 64° 293° (WNW) 10:34:17 437.305
SEEDS 27 May 10:26:21 10:29:50 25° 290° (WNW) 10:33:20 437.485
SRMSAT 27 May 10:50:22 10:52:21 12° 180° (S) 10:54:21 437.500
Oscar 11 27 May 10:52:13 10:56:29 58° 285° (WNW) 11:00:45 145.826/435.025
CUTE 1.7 + AOD 2 27 May 10:52:35 10:53:28 11° 297° (WNW) 10:54:21 437.475
ZACube-1 27 May 11:05:55 11:09:54 44° 287° (WNW) 11:13:57 437.345
POPSAT HIP 1 27 May 11:08:41 11:12:08 25° 69° (ENE) 11:15:34 437.405
CUSAT 1 27 May 11:08:50 11:13:25 21° 81° (E) 11:18:39 437.405
QB50P1 27 May 11:09:04 11:12:34 25° 69° (ENE) 11:16:02 145.935-145.965
CUBEBUG 2 27 May 11:10:58 11:13:52 19° 292° (WNW) 11:16:46 437.445
QB50P2 27 May 11:11:07 11:14:44 28° 70° (ENE) 11:18:21 145.880/145.840
POLYITAN 1 27 May 11:13:33 11:17:11 28° 70° (ENE) 11:20:49 437.675
COMPASS 1 27 May 11:15:06 11:16:15 11° 296° (WNW) 11:17:24 437.405
HUMSAT D 27 May 11:16:36 11:20:41 53° 100° (E) 11:24:47 437.325/437.525
AAUSAT CUBESAT 2 27 May 11:17:19 11:19:08 13° 295° (WNW) 11:20:57 437.432
UNISAT 6 27 May 11:20:19 11:24:26 39° 261° (W) 11:28:30 437.425
JAS-2 27 May 11:26:58 11:30:59 15° 54° (NE) 11:35:05 435.910
NANOSAT C BR1 27 May 11:27:10 11:31:04 38° 72° (ENE) 11:35:00 145.865
TIGRISAT 27 May 11:28:07 11:32:07 34° 262° (W) 11:36:04 435.000
BEESAT 2 27 May 11:40:12 11:43:23 23° 112° (ESE) 11:46:34 435.950
UWE-3 27 May 11:41:00 11:42:57 13° 295° (WNW) 11:44:55 435.000/436.395/437.385
FUNcube-1 27 May 11:45:06 11:47:59 18° 292° (WNW) 11:50:52 145.935
DELFI C3 27 May 11:48:15 11:51:38 26° 290° (WNW) 11:54:59 145.870
AISAT 27 May 11:52:35 11:55:20 16° 93° (E) 11:58:04 437.250
PCSat 27 May 11:55:33 11:59:23 19° 313° (NW) 12:03:13 145.827
GONETS M04 27 May 11:57:13 12:01:42 15° 283° (WNW) 12:06:13
Cosmos 2499 27 May 12:00:52 12:07:22 25° 278° (W) 12:14:02 435.465 / 435.565
UKube-1 27 May 12:02:39 12:04:34 13° 92° (E) 12:06:27 .
ANTELSAT 27 May 12:03:39 12:05:57 14° 268° (W) 12:08:15 437.575/2403.000
DUCHIFAT 1 27 May 12:05:32 12:09:45 79° 258° (WSW) 12:13:59 145.980
BEESAT 3 27 May 12:14:36 12:18:30 74° 301° (WNW) 12:22:28 437.485
BUGSAT 1 27 May 12:24:40 12:28:53 79° 76° (ENE) 12:33:05 437.445
ESTCUBE 1 27 May 12:28:27 12:32:58 61° 101° (E) 12:37:26 437.505/2401.250
50 SAT 27 May 12:29:54 12:33:30 46° 100° (E) 12:37:05 437.505
Oscar 19 27 May 12:40:58 12:44:34 19° 64° (ENE) 12:48:11 437.125/150
DANDE 27 May 12:41:10 12:46:17 53° 91° (E) 12:53:00 436.750
POPSAT HIP 1 27 May 12:44:16 12:47:49 25° 264° (W) 12:51:22 437.405
QB50P1 27 May 12:44:44 12:48:15 25° 264° (W) 12:51:45 145.935-145.965
CUBEBUG 1 27 May 12:45:12 12:49:33 64° 101° (E) 12:53:51 437.445
DX 1 27 May 12:47:00 12:51:16 52° 100° (E) 12:55:29 434.975-435.025
QB50P2 27 May 12:47:10 12:50:30 22° 265° (W) 12:53:51 145.880/145.840
CUSAT 1 27 May 12:48:26 12:54:34 65° 283° (WNW) 13:02:10 437.405
POLYITAN 1 27 May 12:49:41 12:52:58 22° 265° (W) 12:56:16 437.675
VELOX 1 27 May 12:51:32 12:55:58 72° 102° (ESE) 13:00:21 145.980
HUMSAT D 27 May 12:54:08 12:55:50 12° 295° (WNW) 12:57:33 437.325/437.525
Gurwin Techsat 1B 27 May 13:03:25 13:05:49 13° 61° (ENE) 13:08:14 435.225
NANOSAT C BR1 27 May 13:04:17 13:06:56 16° 267° (W) 13:09:36 145.865
JAS-2 27 May 13:07:20 13:14:35 75° 73° (ENE) 13:22:25 435.910
SPROUT 27 May 13:13:13 13:17:21 49° 100° (E) 13:21:28 437.525
BEESAT 2 27 May 13:17:38 13:21:05 28° 308° (NW) 13:24:35 435.950
AISAT 27 May 13:27:50 13:32:00 42° 288° (WNW) 13:36:07 437.250
UKube-1 27 May 13:36:41 13:40:53 51° 287° (WNW) 13:45:04 .
TISAT 1 27 May 13:38:35 13:42:00 24° 96° (E) 13:45:23 437.305
AO-7 27 May 13:44:48 13:47:52 13° 46° (NE) 13:50:57 29.400- 29.500
AIST 2 27 May 13:47:28 13:51:13 34° 114° (ESE) 13:54:58 435.215
AO-85 27 May 13:56:58 13:58:15 11° 36° (NE) 13:59:30 145.980
50 SAT 27 May 14:05:40 14:06:48 11° 294° (WNW) 14:07:55 437.505
ESTCUBE 1 27 May 14:07:08 14:09:14 13° 297° (WNW) 14:11:18 437.505/2401.250
SWISSCUBE 27 May 14:16:43 14:19:05 14° 92° (E) 14:21:26 437.505
Oscar 19 27 May 14:18:26 14:23:28 51° 260° (W) 14:28:33 437.125/150
ITUPSAT 1 27 May 14:22:43 14:25:10 14° 92° (E) 14:27:37 437.325
CUBEBUG 1 27 May 14:23:46 14:25:16 12° 297° (WNW) 14:26:45 437.445
DX 1 27 May 14:24:46 14:26:59 14° 296° (WNW) 14:29:12 434.975-435.025
DANDE 27 May 14:25:23 14:29:47 23° 297° (WNW) 14:35:06 436.750
VELOX 1 27 May 14:30:52 14:31:47 11° 298° (WNW) 14:32:43 145.980
CUSAT 1 27 May 14:36:16 14:38:31 12° 305° (NW) 14:40:52 437.405
Gurwin Techsat 1B 27 May 14:39:45 14:45:04 79° 258° (WSW) 14:50:24 435.225
BEESAT 27 May 14:45:10 14:49:04 25° 95° (E) 14:52:58 436.000
